| time (UTC) | temp C | wind direction | speed KPH | gust KPH | rain 1hr cm | rain 24hr cm | rain mn cm | humidity % | barometer mb |
| 20260905174547 | 17 | 257 | 6.4 | 12.9 | 0.00 | 0.10 | 0.10 | 59 | 1020.5 |
| 20260905173045 | 16 | 281 | 4.8 | 11.3 | 0.00 | 0.10 | 0.10 | 61 | 1020.4 |
| 20260905171544 | 16 | 252 | 1.6 | 11.3 | 0.00 | 0.10 | 0.10 | 66 | 1020.4 |
| 20260905170050 | 16 | 279 | 4.8 | 12.9 | 0.00 | 0.10 | 0.10 | 69 | 1020.4 |
| 20260905164545 | 16 | 217 | 3.2 | 9.7 | 0.00 | 0.10 | 0.10 | 72 | 1020.4 |
| 20260905163045 | 15 | 224 | 4.8 | 11.3 | 0.00 | 0.10 | 0.10 | 76 | 1020.6 |
| 20260905161544 | 15 | 214 | 3.2 | 8.0 | 0.00 | 0.10 | 0.10 | 76 | 1020.5 |
| 20260905160040 | 14 | 0 | 0.0 | 3.2 | 0.00 | 0.10 | 0.10 | 79 | 1020.3 |
| 20260905154549 | 14 | 40 | 3.2 | 12.9 | 0.03 | 0.10 | 0.10 | 80 | 1020.3 |
| 20260905153055 | 13 | 62 | 4.8 | 12.9 | 0.03 | 0.10 | 0.10 | 86 | 1020.1 |
| 20260905151547 | 12 | 0 | 0.0 | 3.2 | 0.03 | 0.10 | 0.10 | 89 | 1020.0 |
| 20260905150046 | 12 | 0 | 0.0 | 1.6 | 0.03 | 0.10 | 0.10 | 89 | 1019.9 |
| 20260905144547 | 12 | 329 | 1.6 | 6.4 | 0.03 | 0.08 | 0.08 | 89 | 1019.9 |
| 20260905143046 | 11 | 331 | 4.8 | 12.9 | 0.08 | 0.08 | 0.08 | 89 | 1019.6 |
| 20260905141544 | 11 | 318 | 9.7 | 12.9 | 0.08 | 0.08 | 0.08 | 88 | 1019.7 |
| 20260905140042 | 11 | 291 | 3.2 | 14.5 | 0.08 | 0.08 | 0.08 | 87 | 1020.2 |
| 20260905134542 | 11 | 274 | 17.7 | 29.0 | 0.03 | 0.03 | 0.03 | 84 | 1020.7 |
| 20260905133045 | 11 | 271 | 12.9 | 19.3 | 0.00 | 0.00 | 0.00 | 83 | 1019.9 |
| 20260905131559 | 11 | 233 | 14.5 | 22.5 | 0.00 | 0.00 | 0.00 | 79 | 1019.7 |
| 20260905130049 | 11 | 0 | 0.0 | 11.3 | 0.00 | 0.00 | 0.00 | 77 | 1018.7 |
| 20260905124544 | 11 | 175 | 6.4 | 16.1 | 0.00 | 0.00 | 0.00 | 78 | 1019.4 |
| 20260905123046 | 11 | 152 | 6.4 | 11.3 | 0.00 | 0.00 | 0.00 | 76 | 1019.1 |
| 20260905121544 | 11 | 160 | 6.4 | 11.3 | 0.00 | 0.00 | 0.00 | 72 | 1018.9 |
| 20260905120043 | 11 | 198 | 4.8 | 11.3 | 0.00 | 0.00 | 0.00 | 73 | 1019.0 |
| 20260905114543 | 10 | 164 | 4.8 | 9.7 | 0.00 | 0.00 | 0.00 | 73 | 1018.9 |
| 20260905113046 | 10 | 164 | 4.8 | 11.3 | 0.00 | 0.00 | 0.00 | 71 | 1018.5 |
| 20260905111605 | 10 | 194 | 8.0 | 12.9 | 0.00 | 0.00 | 0.00 | 70 | 1018.3 |
| 20260905110046 | 10 | 274 | 8.0 | 11.3 | 0.00 | 0.00 | 0.00 | 69 | 1017.7 |
| 20260905104542 | 11 | 285 | 6.4 | 9.7 | 0.00 | 0.00 | 0.00 | 68 | 1018.0 |
| 20260905103044 | 10 | 214 | 1.6 | 6.4 | 0.00 | 0.00 | 0.00 | 69 | 1017.7 |
| 20260905101546 | 10 | 214 | 4.8 | 8.0 | 0.00 | 0.00 | 0.00 | 68 | 1018.0 |
| 20260905100047 | 11 | 0 | 0.0 | 3.2 | 0.00 | 0.00 | 0.00 | 68 | 1017.7 |
| 20260905094544 | 11 | 312 | 3.2 | 11.3 | 0.00 | 0.00 | 0.00 | 65 | 1017.9 |
| 20260905093042 | 11 | 243 | 4.8 | 8.0 | 0.00 | 0.00 | 0.00 | 64 | 1018.0 |
| 20260905091542 | 11 | 103 | 1.6 | 3.2 | 0.00 | 0.00 | 0.00 | 65 | 1017.5 |
| 20260905090044 | 12 | 103 | 1.6 | 6.4 | 0.00 | 0.00 | 0.00 | 63 | 1017.0 |
| 20260905084541 | 12 | 103 | 0.0 | 9.7 | 0.00 | 0.00 | 0.00 | 62 | 1016.8 |
| 20260905083045 | 12 | 63 | 0.0 | 9.7 | 0.00 | 0.00 | 0.00 | 61 | 1016.3 |
| 20260905081552 | 13 | 23 | 4.8 | 12.9 | 0.00 | 0.00 | 0.00 | 57 | 1016.6 |
| 20260905080046 | 15 | 0 | 1.6 | 11.3 | 0.00 | 0.00 | 0.00 | 55 | 1017.5 |
| 20260905074554 | 14 | 114 | 4.8 | 12.9 | 0.00 | 0.00 | 0.00 | 57 | 1017.7 |
| 20260905073058 | 13 | 134 | 4.8 | 14.5 | 0.00 | 0.00 | 0.00 | 60 | 1017.6 |
| 20260905071544 | 12 | 130 | 3.2 | 6.4 | 0.00 | 0.00 | 0.00 | 59 | 1017.5 |
| 20260905070048 | 13 | 187 | 4.8 | 11.3 | 0.00 | 0.00 | 0.00 | 57 | 1016.8 |
| 20260905064545 | 14 | 213 | 8.0 | 12.9 | 0.00 | 0.00 | 0.00 | 54 | 1017.1 |
| 20260905063044 | 13 | 260 | 1.6 | 6.4 | 0.00 | 0.00 | 0.00 | 54 | 1017.1 |
| 20260905061543 | 13 | 281 | 3.2 | 9.7 | 0.00 | 0.00 | 0.00 | 54 | 1017.1 |
| 20260905060046 | 13 | 228 | 4.8 | 19.3 | 0.00 | 0.00 | 0.00 | 55 | 1016.9 |
| 20260905054548 | 13 | 0 | 0.0 | 8.0 | 0.00 | 0.00 | 0.00 | 54 | 1016.5 |
| 20260905053110 | 14 | 2 | 1.6 | 6.4 | 0.00 | 0.00 | 0.00 | 52 | 1016.4 |
| 20260905051543 | 15 | 291 | 4.8 | 8.0 | 0.00 | 0.00 | 0.00 | 50 | 1016.4 |
| 20260905050048 | 16 | 138 | 1.6 | 9.7 | 0.00 | 0.00 | 0.00 | 48 | 1016.5 |
| 20260905044548 | 16 | 138 | 1.6 | 6.4 | 0.00 | 0.00 | 0.00 | 47 | 1016.4 |
| 20260905043043 | 16 | 0 | 0.0 | 16.1 | 0.00 | 0.00 | 0.00 | 46 | 1016.5 |
| 20260905041546 | 17 | 256 | 3.2 | 6.4 | 0.00 | 0.00 | 0.00 | 46 | 1016.4 |
| 20260905040047 | 17 | 316 | 11.3 | 17.7 | 0.00 | 0.00 | 0.00 | 45 | 1015.8 |
| 20260905034550 | 17 | 338 | 16.1 | 24.1 | 0.00 | 0.00 | 0.00 | 44 | 1015.4 |
| 20260905033056 | 17 | 329 | 14.5 | 19.3 | 0.00 | 0.00 | 0.00 | 44 | 1015.4 |
| 20260905031545 | 17 | 317 | 9.7 | 19.3 | 0.00 | 0.00 | 0.00 | 44 | 1015.5 |
| 20260905030047 | 17 | 290 | 8.0 | 14.5 | 0.00 | 0.00 | 0.00 | 43 | 1015.4 |
| 20260905024545 | 17 | 329 | 12.9 | 20.9 | 0.00 | 0.00 | 0.00 | 43 | 1014.9 |
| 20260905023045 | 18 | 329 | 8.0 | 20.9 | 0.00 | 0.00 | 0.00 | 42 | 1014.8 |
| 20260905021545 | 18 | 310 | 17.7 | 29.0 | 0.00 | 0.00 | 0.00 | 42 | 1014.8 |
| 20260905020044 | 18 | 345 | 20.9 | 30.6 | 0.00 | 0.00 | 0.00 | 41 | 1013.8 |
| 20260905014546 | 18 | 350 | 22.5 | 37.0 | 0.00 | 0.00 | 0.00 | 40 | 1013.1 |
| 20260905013047 | 18 | 335 | 25.7 | 37.0 | 0.00 | 0.00 | 0.00 | 39 | 1013.1 |
| 20260905011545 | 18 | 354 | 24.1 | 32.2 | 0.00 | 0.00 | 0.00 | 38 | 1013.3 |
| 20260905010043 | 19 | 349 | 8.0 | 24.1 | 0.00 | 0.00 | 0.00 | 37 | 1013.3 |
| 20260905004549 | 20 | 343 | 19.3 | 29.0 | 0.00 | 0.00 | 0.00 | 35 | 1013.3 |
| 20260905003046 | 20 | 324 | 20.9 | 37.0 | 0.00 | 0.00 | 0.00 | 35 | 1013.4 |
| 20260905001544 | 20 | 295 | 24.1 | 30.6 | 0.00 | 0.00 | 0.00 | 34 | 1013.6 |
| 20260905000048 | 21 | 304 | 22.5 | 32.2 | 0.00 | 0.00 | 0.00 | 33 | 1013.7 |
| 20260904234546 | 21 | 304 | 24.1 | 33.8 | 0.00 | 0.00 | 0.00 | 33 | 1013.5 |
| 20260904233050 | 21 | 307 | 22.5 | 33.8 | 0.00 | 0.00 | 0.00 | 33 | 1013.7 |
| 20260904231545 | 21 | 281 | 19.3 | 37.0 | 0.00 | 0.00 | 0.00 | 33 | 1013.6 |
| 20260904230044 | 21 | 305 | 16.1 | 37.0 | 0.00 | 0.00 | 0.00 | 33 | 1013.4 |
| 20260904224600 | 21 | 291 | 22.5 | 30.6 | 0.00 | 0.00 | 0.00 | 33 | 1013.4 |
| 20260904223048 | 21 | 304 | 27.4 | 38.6 | 0.00 | 0.00 | 0.00 | 33 | 1013.2 |
| 20260904221548 | 21 | 281 | 22.5 | 35.4 | 0.00 | 0.00 | 0.00 | 32 | 1013.0 |
| 20260904220045 | 21 | 299 | 25.7 | 40.2 | 0.00 | 0.00 | 0.00 | 32 | 1013.0 |
| 20260904214550 | 21 | 292 | 20.9 | 41.8 | 0.00 | 0.00 | 0.00 | 34 | 1012.7 |
| 20260904213047 | 21 | 317 | 29.0 | 45.1 | 0.00 | 0.00 | 0.00 | 34 | 1012.4 |
| 20260904211545 | 21 | 292 | 24.1 | 38.6 | 0.00 | 0.00 | 0.00 | 35 | 1012.1 |
| 20260904210052 | 20 | 292 | 33.8 | 43.5 | 0.00 | 0.00 | 0.00 | 35 | 1012.0 |
| 20260904204544 | 20 | 277 | 29.0 | 40.2 | 0.00 | 0.00 | 0.00 | 36 | 1011.9 |
| 20260904203046 | 20 | 277 | 29.0 | 40.2 | 0.00 | 0.00 | 0.00 | 36 | 1011.8 |
| 20260904201558 | 20 | 277 | 24.1 | 37.0 | 0.00 | 0.00 | 0.00 | 38 | 1011.6 |
| 20260904200044 | 20 | 263 | 27.4 | 35.4 | 0.00 | 0.00 | 0.00 | 38 | 1011.5 |
| 20260904194559 | 20 | 287 | 19.3 | 25.7 | 0.00 | 0.00 | 0.00 | 38 | 1011.1 |
| 20260904193046 | 20 | 268 | 19.3 | 29.0 | 0.00 | 0.00 | 0.00 | 37 | 1010.7 |
| 20260904191543 | 20 | 251 | 4.8 | 14.5 | 0.00 | 0.00 | 0.00 | 36 | 1010.4 |
| 20260904190045 | 20 | 246 | 11.3 | 17.7 | 0.00 | 0.00 | 0.00 | 37 | 1010.4 |
| 20260904184545 | 20 | 230 | 4.8 | 11.3 | 0.00 | 0.00 | 0.00 | 35 | 1010.2 |
| 20260904183045 | 20 | 262 | 4.8 | 14.5 | 0.00 | 0.00 | 0.00 | 37 | 1010.1 |
| 20260904181544 | 19 | 263 | 4.8 | 12.9 | 0.00 | 0.00 | 0.00 | 37 | 1010.1 |
| 20260904180048 | 19 | 251 | 6.4 | 17.7 | 0.00 | 0.00 | 0.00 | 38 | 1010.1 |